Weather History for Westerly, RI

Change the Weather History Date:

Tuesday, November 20, 2012

  Actual Average (KGON) Record (KGON)
Temperature  
Mean Temperature 42 °F -  
Max Temperature 51 °F 51 °F 68 °F (1991)
Min Temperature 32 °F 32 °F 17 °F (1986)
Degree Days  
Heating Degree Days 23    
Moisture  
Dew Point 34 °F    
Average Humidity 81    
Maximum Humidity 96    
Minimum Humidity 56    
Precipitation  
Precipitation 0.00 in - - ()
Sea Level Pressure  
Sea Level Pressure 30.17 in    
Wind  
Wind Speed 3 mph (NNE)    
Max Wind Speed 7 mph    
Max Gust Speed -    
Visibility 10 miles    
Events      
Averages and records for this station are not official NWS values.
T = Trace of Precipitation, MM = Missing Value Source: NWS Daily Summary

Daily Weather History Graph

Daily Weather History Graph

Search for Another Location

Airport:

Trip Planner

Search our weather history database for the weather conditions in past years. The results will help you decide how hot, cold, wet, or windy it might be!

Date:

Astronomy

Nov. 20, 2012 Rise Set
Actual Time 6:42 AM EST 4:23 PM EST
Civil Twilight 6:11 AM EST 4:53 PM EST
Nautical Twilight 5:38 AM EST 5:27 PM EST
Astronomical Twilight 5:05 AM EST 6:00 PM EST
Moon 12:12 PM EST (11/20) 11:55 PM EST (11/20)
Length of Visible Light 10h 41m
Length of Day
9h 41m
Waxing Crescent, 51% of the Moon is Illuminated
Nov 20
Waxing Crescent
Nov 28
Full
Dec 6
Last Quarter
Dec 13
New
Dec 20
First Quarter

Hourly Weather History & Observations

Time (EST) Temp. Windchill Dew Point Humidity Pressure Visibility Wind Dir Wind Speed Gust Speed Precip Events Conditions
12:53 AM 34.0 °F 31.0 °F 33.1 °F 96% 30.24 in 10.0 mi North 3.5 mph - N/A   Clear
1:53 AM 34.0 °F 31.0 °F 33.1 °F 96% 30.22 in 10.0 mi NNE 3.5 mph - N/A   Clear
2:53 AM 35.1 °F 31.0 °F 33.1 °F 92% 30.20 in 10.0 mi North 4.6 mph - N/A   Clear
3:53 AM 34.0 °F 31.0 °F 32.0 °F 92% 30.19 in 10.0 mi North 3.5 mph - N/A   Clear
4:53 AM 33.1 °F 28.7 °F 32.0 °F 96% 30.19 in 10.0 mi North 4.6 mph - N/A   Clear
5:53 AM 33.1 °F 28.7 °F 30.9 °F 92% 30.18 in 10.0 mi North 4.6 mph - N/A   Clear
6:53 AM 34.0 °F 29.8 °F 32.0 °F 92% 30.19 in 8.0 mi North 4.6 mph - N/A   Clear
7:53 AM 36.0 °F 32.1 °F 34.0 °F 93% 30.20 in 9.0 mi North 4.6 mph - N/A   Clear
8:53 AM 39.0 °F 34.8 °F 36.0 °F 89% 30.19 in 10.0 mi North 5.8 mph - N/A   Clear
9:53 AM 46.9 °F - 37.9 °F 71% 30.18 in 10.0 mi NNE 6.9 mph - N/A   Clear
10:53 AM 48.9 °F - 37.9 °F 66% 30.17 in - North - - N/A   Partly Cloudy
11:16 AM 51.8 °F - 37.4 °F 58% 30.16 in - North - - N/A   Mostly Cloudy
11:23 AM 50.0 °F - 37.4 °F 62% 30.16 in - North - - N/A   Unknown
11:53 AM 51.1 °F - 37.0 °F 59% 30.15 in - North - - N/A   Unknown
12:53 PM - - - N/A% 30.13 in - North - - N/A   Clear
2:53 PM 51.1 °F - 36.0 °F 56% 30.13 in - North - - N/A   Clear
3:53 PM 48.0 °F - 36.0 °F 63% 30.13 in 10.0 mi NE 4.6 mph - N/A   Clear
4:53 PM 45.0 °F - 35.1 °F 68% 30.13 in 10.0 mi Calm Calm - N/A   Clear
5:53 PM 42.1 °F - 35.1 °F 76% 30.15 in 10.0 mi Calm Calm - N/A   Clear
6:53 PM 39.9 °F - 34.0 °F 79% 30.15 in 10.0 mi Calm Calm - N/A   Clear
7:53 PM 37.9 °F - 33.1 °F 83% 30.15 in 10.0 mi Calm Calm - N/A   Clear
8:53 PM 35.1 °F - 32.0 °F 89% 30.15 in 10.0 mi Calm Calm - N/A   Clear
9:53 PM 34.0 °F - 32.0 °F 92% 30.16 in 10.0 mi Calm Calm - N/A   Clear
10:53 PM 34.0 °F - 32.0 °F 92% 30.16 in 10.0 mi Calm Calm - N/A   Clear
11:53 PM 32.0 °F - 30.0 °F 92% 30.16 in 9.0 mi Calm Calm - N/A   Clear